GW7011 Weather Reports


time (UTC)temp
C
wind
direction
speed
KPH
gust
KPH
rain 1hr
cm
rain 24hr
cm
rain mn
cm
humidity
%
barometer
mb
20260507061003 10 301 0.0 0.0 0.00 0.00 0.00 98 1005.7
20260507060500 10 301 0.0 1.6 0.00 0.00 0.00 98 1005.4
20260507055956 10 276 0.0 1.6 0.00 0.00 0.00 98 1005.6
20260507055452 10 252 0.0 1.6 0.00 0.00 0.00 98 1005.2
20260507054949 10 250 0.0 1.6 0.00 0.00 0.00 98 1005.3
20260507054445 10 234 0.0 1.6 0.00 0.00 0.00 99 1005.4
20260507053942 10 241 0.0 1.6 0.00 0.00 0.00 99 1005.2
20260507053440 10 242 0.0 0.0 0.00 0.00 0.00 99 1005.3
20260507052938 10 242 1.6 1.6 0.00 0.00 0.00 99 1005.2
20260507052435 10 242 0.0 0.0 0.00 0.00 0.00 99 1005.4
20260507051932 10 242 0.0 0.0 0.00 0.00 0.00 99 1005.3
20260507051430 10 242 0.0 0.0 0.00 0.00 0.00 99 1005.0
20260507050927 10 242 0.0 0.0 0.00 0.00 0.00 99 1005.1
20260507050423 10 242 0.0 0.0 0.00 0.00 0.00 99 1005.2
20260507045920 10 247 0.0 0.0 0.00 0.00 0.00 99 1005.1
20260507045416 10 311 1.6 1.6 0.00 0.00 0.00 99 1005.4
20260507044914 10 311 0.0 1.6 0.00 0.00 0.00 99 1005.3
20260507044410 10 311 0.0 1.6 0.00 0.00 0.00 99 1005.1
20260507043907 10 306 0.0 1.6 0.00 0.00 0.00 99 1005.1
20260507043403 10 299 0.0 1.6 0.00 0.00 0.00 99 1005.0
20260507042859 10 299 0.0 0.0 0.00 0.00 0.00 99 1004.9
20260507042356 10 299 0.0 1.6 0.00 0.00 0.00 98 1004.9
20260507041852 10 304 1.6 1.6 0.00 0.00 0.00 98 1005.2
20260507041349 11 295 0.0 0.0 0.00 0.00 0.00 98 1005.2
20260507040846 11 296 0.0 3.2 0.00 0.00 0.00 98 1005.1
20260507040342 11 287 1.6 1.6 0.00 0.00 0.00 98 1005.3
20260507035838 11 308 3.2 3.2 0.18 0.58 0.58 97 1005.3
20260507035333 11 291 0.0 1.6 0.18 0.58 0.58 97 1005.1
20260507034832 11 296 1.6 3.2 0.00 0.56 0.56 97 1005.3
20260507034328 11 251 0.0 3.2 0.13 0.56 0.56 97 1004.9
20260507033826 11 204 4.8 8.0 0.30 0.56 0.56 96 1005.1
20260507033324 12 254 1.6 1.6 0.30 0.53 0.53 96 1005.0
20260507032821 12 284 0.0 3.2 0.13 0.51 0.51 95 1005.1
20260507032317 12 251 3.2 8.0 0.00 0.48 0.48 94 1004.9
20260507031814 12 241 1.6 8.0 0.00 0.48 0.48 94 1004.9
20260507031310 13 228 3.2 8.0 0.00 0.48 0.48 94 1004.4
20260507030806 13 305 1.6 4.8 0.00 0.48 0.48 94 1004.3
20260507030305 13 249 1.6 3.2 0.00 0.48 0.48 94 1004.2
20260507025801 13 236 3.2 3.2 0.00 0.48 0.48 95 1004.2
20260507025258 13 236 3.2 4.8 0.00 0.48 0.48 94 1004.1
20260507024756 13 259 1.6 1.6 0.00 0.48 0.48 94 1004.4
20260507024253 14 246 0.0 8.0 0.00 0.48 0.48 93 1004.6
20260507023749 14 237 4.8 4.8 0.00 0.48 0.48 93 1004.3
20260507023246 14 236 3.2 3.2 0.00 0.48 0.48 93 1004.3
20260507022743 14 241 1.6 4.8 0.00 0.48 0.48 93 1004.4
20260507022239 15 246 0.0 3.2 0.00 0.48 0.48 94 1004.5
20260507021736 15 244 1.6 3.2 0.00 0.48 0.48 95 1004.2
20260507021231 15 209 3.2 4.8 0.00 0.48 0.48 95 1004.2
20260507020730 15 236 1.6 3.2 0.00 0.48 0.48 95 1004.4
20260507020226 15 240 0.0 1.6 0.00 0.48 0.48 95 1004.1
20260507015723 15 244 1.6 3.2 0.00 0.48 0.48 95 1004.3
20260507015221 15 257 1.6 1.6 0.00 0.48 0.48 95 1004.1
20260507014717 15 240 1.6 8.0 0.00 0.48 0.48 96 1004.4
20260507014214 15 200 1.6 3.2 0.00 0.48 0.48 96 1004.4
20260507013710 15 273 0.0 1.6 0.00 0.48 0.48 96 1004.2
20260507013208 15 213 3.2 3.2 0.00 0.48 0.48 95 1004.2
20260507012705 15 255 0.0 1.6 0.00 0.48 0.48 95 1004.4
20260507012200 15 247 0.0 3.2 0.00 0.48 0.48 95 1004.3
20260507011658 15 237 1.6 4.8 0.00 0.48 0.48 95 1004.4
20260507011154 15 168 6.4 9.7 0.00 0.48 0.48 95 1004.4
20260507010649 15 177 4.8 11.3 0.00 0.48 0.48 95 1004.4
20260507010145 15 169 6.4 11.3 0.00 0.48 0.48 95 1004.3
20260507005643 15 162 6.4 11.3 0.00 0.48 0.48 95 1004.4
20260507005138 15 184 3.2 11.3 0.00 0.48 0.48 94 1004.3
20260507004636 15 170 4.8 12.9 0.00 0.48 0.48 94 1004.3
20260507004133 15 200 6.4 8.0 0.00 0.48 0.48 94 1004.2
20260507003630 15 173 11.3 14.5 0.00 0.48 0.48 94 1004.4
20260507003129 15 239 0.0 12.9 0.00 0.48 0.48 95 1004.1
20260507002626 15 169 9.7 12.9 0.00 0.48 0.48 95 1004.2
20260507002122 15 251 0.0 14.5 0.00 0.48 0.48 94 1004.3
20260507001619 15 241 0.0 8.0 0.00 0.48 0.48 94 1004.1
20260507001117 15 237 3.2 8.0 0.00 0.48 0.48 94 1004.3
20260507000613 15 175 6.4 12.9 0.00 0.48 0.48 93 1004.0
20260507000114 15 207 8.0 20.9 0.00 0.48 0.48 93 1004.0
20260506235611 15 175 8.0 20.9 0.00 0.48 0.48 93 1004.1
20260506235111 15 182 8.0 16.1 0.00 0.48 0.48 93 1004.0
20260506234609 15 171 8.0 14.5 0.00 0.48 0.48 93 1004.0
20260506234106 15 230 11.3 20.9 0.00 0.48 0.48 93 1004.0
20260506233603 15 171 11.3 16.1 0.00 0.48 0.48 93 1003.9
20260506233100 15 170 8.0 20.9 0.00 0.48 0.48 93 1003.8
20260506232556 15 166 6.4 14.5 0.00 0.48 0.48 93 1003.9
20260506232056 15 198 8.0 16.1 0.00 0.48 0.48 93 1003.8
20260506231554 15 178 12.9 16.1 0.00 0.48 0.48 94 1003.9
20260506231052 15 191 4.8 14.5 0.00 0.48 0.48 94 1003.9
20260506230548 15 174 8.0 16.1 0.00 0.48 0.48 94 1004.0
20260506230046 15 209 6.4 20.9 0.00 0.48 0.48 94 1004.2
20260506225542 15 215 3.2 11.3 0.00 0.48 0.48 94 1003.8
20260506225038 15 174 9.7 14.5 0.00 0.48 0.48 94 1003.9
20260506224536 15 200 6.4 11.3 0.00 0.48 0.48 94 1004.0
20260506224032 15 183 9.7 17.7 0.00 0.48 0.48 94 1004.2
20260506223528 15 173 9.7 16.1 0.00 0.48 0.48 94 1004.2
20260506223025 15 183 3.2 14.5 0.00 0.48 0.48 95 1004.1
20260506222522 15 159 11.3 17.7 0.00 0.48 0.48 94 1004.3
20260506222018 15 168 6.4 12.9 0.00 0.48 0.48 95 1004.1
20260506221515 15 167 8.0 17.7 0.00 0.48 0.48 95 1004.4
20260506221013 15 233 1.6 4.8 0.00 0.48 0.48 97 1004.4
20260506220509 15 174 4.8 11.3 0.00 0.48 0.48 97 1004.3
20260506220005 15 216 3.2 11.3 0.00 0.48 0.48 97 1004.3
20260506215502 15 234 4.8 11.3 0.00 0.48 0.48 97 1004.5
20260506214957 15 199 3.2 9.7 0.00 0.48 0.48 97 1004.6
20260506214454 15 192 3.2 9.7 0.00 0.48 0.48 97 1004.8
20260506213952 15 177 9.7 14.5 0.18 0.48 0.48 97 1004.6
20260506213450 15 175 4.8 4.8 0.18 0.48 0.48 96 1004.8
20260506212947 15 191 6.4 14.5 0.00 0.46 0.46 96 1004.8
20260506212442 15 180 4.8 17.7 0.00 0.46 0.46 96 1005.0
20260506211943 15 163 4.8 11.3 0.00 0.46 0.46 98 1004.9
20260506211439 15 178 6.4 11.3 0.00 0.46 0.46 99 1004.9
20260506210936 15 248 0.0 4.8 0.00 0.46 0.46 99 1005.2
20260506210433 15 230 1.6 3.2 0.00 0.46 0.46 99 1005.2
20260506205930 15 213 1.6 1.6 0.13 0.46 0.46 99 1005.2
20260506205426 15 219 0.0 1.6 0.13 0.46 0.46 99 1005.4
20260506204922 15 219 0.0 3.2 0.18 0.43 0.43 99 1005.3
20260506204420 15 219 0.0 1.6 0.13 0.41 0.41 98 1005.5
20260506203917 15 219 0.0 3.2 0.00 0.38 0.38 98 1005.6
20260506203414 15 220 1.6 3.2 0.00 0.38 0.38 98 1005.5
20260506202911 15 225 0.0 0.0 0.18 0.38 0.38 98 1005.2
20260506202408 15 225 0.0 0.0 0.18 0.38 0.38 98 1005.3
20260506201905 15 225 0.0 0.0 0.13 0.36 0.36 97 1005.3
20260506201402 15 224 0.0 1.6 0.30 0.36 0.36 97 1005.3
20260506200859 15 210 3.2 8.0 0.18 0.33 0.33 96 1005.4
20260506200355 15 172 6.4 11.3 0.13 0.30 0.30 96 1005.5
20260506195851 15 231 1.6 8.0 0.13 0.30 0.30 96 1005.3
20260506195349 15 251 0.0 3.2 0.18 0.28 0.28 96 1005.4
20260506194845 15 191 4.8 9.7 0.30 0.28 0.28 95 1005.6
20260506194342 15 165 6.4 16.1 0.13 0.25 0.25 94 1005.7
20260506193840 15 179 6.4 14.5 0.00 0.23 0.23 93 1005.8
20260506193336 15 172 6.4 14.5 0.00 0.23 0.23 94 1005.6
20260506192833 16 169 8.0 11.3 0.00 0.23 0.23 93 1005.9
20260506192330 16 163 8.0 14.5 0.00 0.23 0.23 93 1005.9
20260506191827 16 166 8.0 16.1 0.00 0.23 0.23 94 1006.1
20260506191323 16 177 8.0 20.9 0.00 0.23 0.23 94 1006.0
20260506190820 15 171 4.8 11.3 0.00 0.23 0.23 95 1005.8
20260506190316 16 167 8.0 12.9 0.18 0.23 0.23 95 1005.9
20260506185813 16 174 6.4 9.7 0.18 0.23 0.23 94 1005.9
20260506185310 15 215 3.2 9.7 0.00 0.20 0.20 94 1006.0
20260506184807 16 188 3.2 8.0 0.00 0.20 0.20 94 1006.3
20260506184305 16 175 4.8 14.5 0.18 0.20 0.20 92 1006.2
20260506183801 16 189 4.8 4.8 0.18 0.20 0.20 93 1006.3
20260506183257 16 168 6.4 11.3 0.00 0.18 0.18 93 1006.5
20260506182754 16 193 1.6 11.3 0.13 0.18 0.18 92 1006.5
20260506182251 16 202 6.4 9.7 0.18 0.15 0.15 93 1006.5
20260506181749 16 193 3.2 9.7 0.18 0.15 0.15 93 1006.6
20260506181246 16 239 1.6 9.7 0.13 0.13 0.13 93 1006.6
20260506180743 16 233 1.6 3.2 0.43 0.13 0.13 93 1006.6
20260506180239 16 234 4.8 4.8 0.48 0.10 0.10 93 1006.7
20260506175736 16 225 4.8 8.0 0.18 0.05 0.05 91 1006.7
20260506175233 16 252 1.6 1.6 0.00 0.03 0.03 91 1006.6
20260506174730 17 241 0.0 4.8 0.00 0.03 0.03 90 1006.1
20260506174227 17 190 3.2 8.0 0.13 0.03 0.03 81 1006.1
20260506173725 17 246 3.2 4.8 0.00 0.00 0.00 81 1006.3
20260506173221 18 185 4.8 4.8 0.00 0.00 0.00 79 1006.1
20260506172718 18 175 6.4 9.7 0.00 0.00 0.00 75 1006.0
20260506172215 18 216 3.2 9.7 0.00 0.00 0.00 75 1006.2
20260506171712 18 233 3.2 12.9 0.00 0.00 0.00 74 1006.1
20260506171210 18 194 4.8 12.9 0.00 0.00 0.00 75 1006.1
20260506170707 18 175 4.8 8.0 0.00 0.00 0.00 75 1006.2
20260506170204 18 185 11.3 14.5 0.00 0.00 0.00 74 1006.4
20260506165702 18 187 4.8 9.7 0.00 0.00 0.00 75 1006.4
20260506165158 18 207 1.6 9.7 0.00 0.00 0.00 75 1006.3
20260506164655 18 216 1.6 8.0 0.00 0.00 0.00 76 1006.8
20260506164153 18 170 6.4 11.3 0.00 0.00 0.00 76 1006.7
20260506163649 18 222 1.6 4.8 0.00 0.00 0.00 77 1006.8
20260506163144 18 206 0.0 3.2 0.00 0.00 0.00 76 1006.8
20260506162641 18 249 0.0 1.6 0.00 0.00 0.00 76 1007.1
20260506162138 18 191 4.8 4.8 0.00 0.00 0.00 77 1007.5
20260506161635 17 242 0.0 1.6 0.00 0.00 0.00 78 1007.5
20260506161132 18 285 0.0 1.6 0.00 0.00 0.00 77 1007.7
20260506160630 18 194 3.2 8.0 0.00 0.00 0.00 77 1007.9
20260506160126 17 230 1.6 4.8 0.00 0.00 0.00 77 1007.9
20260506155625 18 214 3.2 4.8 0.00 0.00 0.00 77 1008.0
20260506155122 17 175 8.0 9.7 0.00 0.00 0.00 78 1008.2
20260506153224 17 174 4.8 9.7 0.00 0.00 0.00 78 1008.2
20260506152721 17 172 6.4 8.0 0.00 0.00 0.00 77 1008.2
20260506152218 17 246 4.8 11.3 0.00 0.00 0.00 77 1008.2
20260506151717 17 235 3.2 4.8 0.00 0.00 0.00 77 1008.1
20260506151213 17 297 1.6 3.2 0.00 0.00 0.00 78 1008.3
20260506150709 17 205 1.6 4.8 0.00 0.00 0.00 78 1008.4
20260506150207 17 210 3.2 8.0 0.00 0.00 0.00 79 1008.3
20260506145704 17 232 1.6 8.0 0.00 0.00 0.00 79 1008.2
20260506145200 17 215 3.2 4.8 0.00 0.00 0.00 79 1008.1
20260506144658 17 181 6.4 9.7 0.00 0.00 0.00 78 1008.1
20260506144154 17 174 8.0 9.7 0.00 0.00 0.00 79 1008.3
20260506143652 17 180 6.4 11.3 0.00 0.00 0.00 79 1007.9
20260506143150 17 201 4.8 8.0 0.00 0.00 0.00 79 1008.1
20260506142648 17 178 4.8 8.0 0.00 0.00 0.00 80 1008.1
20260506142146 17 172 8.0 9.7 0.00 0.00 0.00 79 1007.8
20260506141643 17 177 4.8 4.8 0.00 0.00 0.00 80 1008.1
20260506141141 16 197 1.6 12.9 0.00 0.00 0.00 79 1008.2
20260506140639 16 225 4.8 11.3 0.00 0.00 0.00 80 1008.2
20260506140136 16 170 8.0 9.7 0.00 0.00 0.00 80 1008.2
20260506135633 16 227 1.6 4.8 0.00 0.00 0.00 79 1008.3
20260506135129 16 171 3.2 4.8 0.00 0.00 0.00 80 1008.4
20260506134626 16 178 4.8 4.8 0.00 0.00 0.00 80 1008.4
20260506134121 16 195 1.6 3.2 0.00 0.00 0.00 80 1008.3
20260506133619 16 266 0.0 3.2 0.00 0.00 0.00 81 1008.5
20260506133116 16 197 0.0 1.6 0.00 0.00 0.00 81 1008.5
20260506132613 16 186 3.2 8.0 0.00 0.00 0.00 80 1008.5
20260506132110 16 198 1.6 4.8 0.00 0.00 0.00 80 1008.5
20260506131607 16 198 3.2 4.8 0.00 0.00 0.00 81 1008.5
20260506131103 16 208 1.6 8.0 0.00 0.00 0.00 81 1008.9
20260506130600 16 247 3.2 9.7 0.00 0.00 0.00 81 1008.8
20260506130058 16 236 1.6 8.0 0.00 0.00 0.00 81 1008.6
20260506125556 16 182 1.6 4.8 0.00 0.00 0.00 81 1008.4
20260506125054 16 192 1.6 3.2 0.00 0.00 0.00 80 1008.3
20260506124551 16 174 4.8 9.7 0.00 0.00 0.00 80 1008.4
20260506124049 16 174 1.6 4.8 0.00 0.00 0.00 81 1008.5
20260506123546 16 176 4.8 4.8 0.00 0.00 0.00 80 1008.6
20260506123045 15 177 6.4 9.7 0.00 0.00 0.00 80 1008.7
20260506122541 15 203 1.6 3.2 0.00 0.00 0.00 81 1008.6
20260506122039 15 225 1.6 4.8 0.00 0.00 0.00 81 1008.7
20260506121536 15 195 0.0 3.2 0.00 0.00 0.00 82 1008.7
20260506121032 15 254 1.6 3.2 0.00 0.00 0.00 82 1008.6
20260506120530 15 299 0.0 1.6 0.00 0.00 0.00 84 1008.8
20260506120028 15 300 0.0 1.6 0.00 0.00 0.00 86 1008.8
20260506115526 15 300 0.0 0.0 0.00 0.00 0.00 87 1008.9
20260506115024 14 300 1.6 1.6 0.00 0.00 0.00 88 1008.8
20260506114521 13 300 0.0 0.0 0.00 0.00 0.00 89 1008.9
20260506114019 14 300 0.0 1.6 0.00 0.00 0.00 88 1008.8
20260506113517 14 300 0.0 0.0 0.00 0.00 0.00 88 1008.9
20260506113014 14 300 0.0 0.0 0.00 0.00 0.00 88 1009.1
20260506112510 14 300 0.0 0.0 0.00 0.00 0.00 87 1009.1
20260506112008 13 292 1.6 1.6 0.00 0.00 0.00 90 1009.3
20260506111506 12 280 1.6 1.6 0.00 0.00 0.00 92 1009.2
20260506111002 12 279 1.6 1.6 0.00 0.00 0.00 94 1009.3
20260506110500 12 278 0.0 1.6 0.00 0.00 0.00 94 1009.5
20260506105956 12 278 0.0 0.0 0.00 0.00 0.00 93 1009.3
20260506105453 12 278 0.0 0.0 0.00 0.00 0.00 93 1009.5
20260506104950 12 275 0.0 0.0 0.00 0.00 0.00 94 1009.3
20260506104448 12 275 0.0 0.0 0.00 0.00 0.00 94 1009.6
20260506103947 12 275 0.0 1.6 0.00 0.00 0.00 94 1009.4
20260506103443 12 275 0.0 0.0 0.00 0.00 0.00 94 1009.3
20260506102940 12 275 0.0 0.0 0.00 0.00 0.00 94 1009.1
20260506102438 12 275 0.0 1.6 0.00 0.00 0.00 94 1009.2
20260506101935 12 275 0.0 0.0 0.00 0.00 0.00 94 1009.1
20260506101431 12 275 0.0 0.0 0.00 0.00 0.00 94 1009.1
20260506100929 12 276 0.0 0.0 0.00 0.00 0.00 94 1008.9
20260506100427 12 276 0.0 1.6 0.00 0.00 0.00 93 1008.7
20260506095925 12 266 1.6 1.6 0.00 0.00 0.00 93 1008.6
20260506095423 12 265 0.0 0.0 0.00 0.00 0.00 93 1008.7
20260506094919 12 266 0.0 0.0 0.00 0.00 0.00 93 1009.1
20260506094418 12 266 0.0 0.0 0.00 0.00 0.00 93 1008.8
20260506093915 12 266 0.0 0.0 0.00 0.00 0.00 92 1008.7
20260506093413 12 266 0.0 0.0 0.00 0.00 0.00 92 1008.8
20260506092910 12 266 0.0 0.0 0.00 0.00 0.00 92 1008.8
20260506092408 12 266 0.0 0.0 0.00 0.00 0.00 92 1009.1
20260506091904 12 266 0.0 0.0 0.00 0.00 0.00 92 1009.1
20260506091402 12 266 0.0 1.6 0.00 0.00 0.00 93 1008.9
20260506090859 12 259 0.0 1.6 0.00 0.00 0.00 92 1008.9
20260506090357 12 239 1.6 3.2 0.00 0.00 0.00 91 1008.9
20260506085854 13 232 0.0 0.0 0.00 0.00 0.00 91 1008.9
20260506085350 13 260 0.0 0.0 0.00 0.00 0.00 91 1008.8
20260506084846 13 259 1.6 1.6 0.00 0.00 0.00 89 1008.7
20260506084343 13 260 0.0 0.0 0.00 0.00 0.00 87 1008.8
20260506083840 13 260 0.0 0.0 0.00 0.00 0.00 88 1008.6
20260506083338 13 260 0.0 0.0 0.00 0.00 0.00 88 1009.2
20260506082835 14 261 0.0 0.0 0.00 0.00 0.00 84 1008.7
20260506082331 13 261 0.0 0.0 0.00 0.00 0.00 86 1008.6
20260506081827 13 260 0.0 0.0 0.00 0.00 0.00 88 1008.7
20260506081326 13 260 0.0 0.0 0.00 0.00 0.00 88 1008.6
20260506080823 14 260 0.0 0.0 0.00 0.00 0.00 85 1008.6
20260506080319 14 337 1.6 1.6 0.00 0.00 0.00 83 1008.6
20260506073303 14 253 0.0 1.6 0.00 0.00 0.00 84 1008.6
20260506072800 15 252 0.0 0.0 0.00 0.00 0.00 84 1008.7
20260506072257 15 252 0.0 0.0 0.00 0.00 0.00 84 1008.7
20260506071755 15 252 0.0 0.0 0.00 0.00 0.00 82 1008.6
20260506071253 15 252 0.0 1.6 0.00 0.00 0.00 82 1008.4
20260506070750 15 252 0.0 0.0 0.00 0.00 0.00 81 1008.5
20260506070247 15 252 0.0 0.0 0.00 0.00 0.00 78 1008.6
20260506062224 16 197 3.2 8.0 0.00 0.00 0.00 77 1008.0
20260506061720 16 267 0.0 1.6 0.00 0.00 0.00 78 1008.0
20260506061217 16 199 1.6 1.6 0.00 0.00 0.00 78 1007.9